Retour au catalogue

COSMOS 1867 COOLANT

ActifLEO
NORAD 39660·DEBRIS·🇷🇺 Russia

Lancé Jul 10, 1987 depuis Baikonur Cosmodrome

Loading…

Prochains Passages (prochaines 24 heures)

TLE

FraisSource: Space-Track

Époque: Sep 14, 2026, 21:28 UTC

1 39660U 87060X   26257.89456331  .00000160  00000-0  93310-4 0  9993
2 39660  65.0071 120.5244 0019319 279.6729  80.2174 14.33924236649466

Suivez COSMOS 1867 COOLANT en temps réel avec AllMySat

Download on the App Store